Theta_e
321 322 321 322 325 327 328 329 330 329 327 326 329 326 325 324 324 317 313 323 320 328 319 307 308 307 307 304 304 300 293 288 291 292 294 295 296 295 298 300 303 307 311 313 325
320 321 321 320 320 326 327 328 329 329 329 328 327 325 323 324 311 308 321 332 332 328 307 305 305 303 300 302 301 298 291 292 294 295 294 296 295 296 298 301 304 308 313 321 327
320 320 320 321 321 325 326 327 328 328 328 327 326 325 324 320 302 302 324 329 332 322 307 306 305 304 300 301 299 297 293 295 295 296 297 295 293 296 297 297 301 307 313 321 324
319 319 320 320 320 321 326 326 327 327 327 326 325 324 322 311 301 302 324 328 333 315 310 304 303 300 297 297 300 295 298 295 296 296 297 295 295 294 297 297 299 309 318 322 322
318 319 319 319 319 320 325 326 327 327 326 326 324 323 312 301 300 308 326 329 320 309 307 304 299 299 296 296 297 296 295 296 295 295 296 296 294 293 296 296 302 317 318 320 322
317 317 318 318 318 319 324 326 326 326 326 325 324 321 303 295 307 313 319 316 309 304 304 305 302 305 302 300 298 294 296 293 294 293 294 294 293 293 294 301 311 316 315 316 320
316 317 318 318 317 319 321 325 326 325 325 325 323 310 301 301 309 315 315 309 306 304 300 303 305 305 306 303 307 299 291 292 291 292 292 294 290 293 292 301 310 312 313 315 316
315 316 318 318 318 319 321 323 324 324 325 324 321 307 299 307 311 310 306 305 303 303 302 304 305 301 302 299 297 291 290 287 290 293 291 292 289 293 294 301 305 309 310 313 316
313 315 317 318 318 319 321 323 323 324 324 323 310 303 297 313 307 309 305 303 301 300 299 303 301 295 295 291 288 289 284 285 289 292 291 291 291 291 291 297 299 306 309 311 313
312 313 316 318 318 318 321 322 323 323 320 313 310 299 300 298 303 305 303 305 300 298 296 295 291 287 285 285 282 284 283 284 287 290 289 288 291 291 290 292 295 297 304 307 310
312 311 314 318 318 319 319 316 311 307 306 297 297 294 297 301 305 301 302 299 297 294 288 289 286 283 285 286 287 286 286 285 286 289 288 288 288 291 290 288 289 291 293 298 303
312 311 314 318 319 318 317 308 310 307 297 299 299 298 299 303 297 300 302 294 292 287 288 286 284 288 289 288 286 284 284 282 286 289 288 285 288 290 289 290 291 291 290 292 295
309 310 311 318 318 315 312 309 311 310 296 296 298 298 297 299 295 296 298 294 290 287 287 285 288 290 289 285 285 282 282 282 284 285 286 284 285 287 289 289 290 291 292 292 294
308 310 310 318 312 313 309 310 311 308 290 289 293 297 299 299 294 300 299 295 290 287 288 286 289 289 286 285 286 281 286 285 285 283 280 282 278 283 285 288 288 292 291 294 295
307 309 310 317 312 308 311 309 309 301 280 291 293 302 299 295 295 296 299 294 288 287 288 286 287 286 285 286 288 285 286 285 283 280 279 278 278 282 282 284 287 291 293 295 295
307 309 310 315 314 313 310 308 304 285 277 286 293 292 292 293 293 295 295 295 293 289 287 287 289 289 289 287 288 287 285 283 280 279 275 279 279 279 281 287 288 288 289 290 291
306 308 308 316 307 315 307 301 284 279 288 284 287 291 290 288 290 293 291 288 286 282 281 283 284 286 288 285 286 284 282 276 275 274 275 277 276 283 286 287 286 287 288 288 288
305 306 309 316 316 310 302 293 281 284 285 289 289 290 286 289 288 290 289 286 288 285 282 281 279 285 287 286 283 283 283 277 272 272 276 279 276 282 287 288 288 288 288 289 289
305 305 308 314 312 307 297 285 283 285 288 286 288 285 284 288 288 288 288 287 289 285 283 280 280 286 287 287 289 283 280 284 277 267 273 276 279 284 287 286 287 287 288 289 290
297 306 308 312 309 303 292 288 283 291 290 289 283 287 283 286 284 286 286 290 288 288 287 285 281 285 286 287 286 285 287 281 279 272 271 275 276 279 283 286 286 286 288 288 289
296 301 309 309 307 295 285 286 286 291 292 288 284 284 285 285 285 285 286 287 290 287 287 286 284 282 286 284 282 283 281 281 282 279 274 272 276 282 285 285 286 286 287 288 290
297 289 307 307 292 291 288 286 291 290 292 289 289 287 286 287 284 285 284 286 291 289 286 287 284 279 281 285 287 284 284 285 282 276 277 277 279 283 284 284 285 286 287 289 290
285 286 305 304 285 285 291 288 289 289 290 289 287 289 290 288 284 286 286 291 292 290 288 289 282 276 280 284 284 283 282 284 282 281 277 275 279 285 285 285 288 287 286 289 290
285 284 291 296 293 290 287 284 285 293 289 290 289 290 289 287 288 286 286 290 292 292 295 293 285 282 279 281 284 282 283 284 284 280 279 280 279 285 285 287 287 288 287 286 289
285 284 288 284 287 291 290 286 286 286 289 291 288 289 288 284 285 285 288 288 290 294 292 290 283 281 280 282 285 284 284 284 284 286 282 286 282 284 286 287 287 287 287 287 288
284 286 288 288 291 290 289 286 286 286 288 287 287 289 290 285 287 283 286 285 285 287 288 287 277 282 276 282 282 281 284 286 286 287 286 287 283 285 288 285 286 288 288 288 289
288 293 293 290 288 287 287 286 287 290 289 290 290 287 286 288 290 292 293 292 291 289 287 285 279 276 271 280 281 278 283 284 285 288 287 283 287 286 285 286 286 287 287 289 290
Wind_Speed
21 22 22 24 24 24 21 22 22 20 24 20 12 11 9 8 9 4 6 5 6 8 5 2 2 3 2 3 4 3 5 3 5 6 5 4 5 1 2 6 1 3 5 2 14
23 21 19 20 19 26 23 23 24 22 19 22 15 10 11 8 3 5 6 11 8 7 5 4 2 4 2 2 3 4 4 7 5 3 5 6 5 9 4 4 3 2 3 7 17
25 21 22 22 21 24 24 24 25 22 22 19 19 15 15 11 2 9 20 12 11 8 6 5 5 3 1 2 2 3 4 1 2 4 2 5 3 4 7 3 8 9 7 14 16
22 24 24 23 19 22 26 24 25 21 21 21 17 15 14 4 9 1 9 20 14 7 7 7 6 3 3 4 2 3 4 3 2 4 2 6 7 5 6 6 3 9 15 16 19
19 24 23 23 17 21 28 25 26 23 21 22 20 20 8 2 8 1 9 15 10 8 8 7 6 6 6 1 2 3 3 1 2 4 3 6 4 5 7 2 2 10 13 14 15
15 21 23 25 22 23 26 26 26 23 22 22 24 19 6 8 3 4 10 11 7 7 8 7 9 3 6 4 2 4 5 1 1 2 1 2 2 3 5 5 6 10 12 10 14
15 16 25 25 24 24 24 27 27 23 23 24 24 8 4 13 4 5 8 7 7 7 8 5 7 7 7 3 1 4 4 3 2 1 1 2 0 8 2 3 8 8 7 7 7
13 11 24 27 25 25 26 28 28 24 24 24 22 3 5 2 6 7 5 6 5 6 7 7 5 7 5 4 6 3 2 1 2 4 1 3 8 4 5 8 9 8 7 7 8
12 13 18 26 26 24 24 28 27 25 24 21 6 3 4 5 5 5 3 11 7 4 4 4 6 3 5 6 3 2 3 3 5 2 2 3 7 3 2 6 7 8 7 7 6
15 14 16 27 26 23 24 27 26 26 21 11 4 6 5 8 6 7 3 11 6 7 5 6 5 4 4 4 8 6 5 3 5 3 2 3 9 5 2 6 9 8 8 8 8
15 15 18 28 28 25 22 19 15 12 15 10 16 2 11 6 5 4 5 8 6 6 6 2 5 7 8 7 6 5 7 6 1 3 2 6 9 9 5 4 8 9 8 9 14
16 16 20 28 28 22 20 19 17 12 20 5 11 2 4 10 8 7 9 8 7 7 6 5 7 9 9 5 5 3 4 4 2 1 4 1 11 10 5 7 9 10 9 12 7
17 17 21 26 28 16 26 25 14 22 10 2 7 3 6 5 7 14 13 5 10 9 7 9 8 9 7 5 6 3 6 5 5 1 0 3 8 6 6 5 6 7 10 8 15
18 19 21 26 17 19 25 20 20 11 6 9 8 7 5 8 4 4 8 9 4 9 9 5 4 11 7 5 6 5 5 4 5 4 5 3 7 6 6 9 6 12 11 17 15
19 21 19 27 11 20 25 21 19 6 12 17 10 1 6 9 16 6 2 6 10 8 8 8 9 9 6 8 8 8 5 6 3 3 1 1 2 9 1 6 11 15 18 17 13
21 23 17 24 12 26 18 21 11 3 7 5 10 10 14 5 2 7 6 7 5 6 4 6 2 7 11 3 9 10 8 7 5 3 3 6 6 6 6 10 9 5 8 9 9
23 24 13 15 23 20 17 16 9 6 12 9 16 18 18 6 6 21 18 11 11 9 7 3 2 1 5 8 4 5 9 1 1 1 7 2 3 9 9 10 7 4 7 5 6
21 21 18 15 16 22 15 17 14 10 10 7 13 21 10 14 1 20 18 13 6 6 7 11 7 9 4 8 11 7 10 8 7 4 4 3 9 9 10 7 8 8 7 6 5
22 9 17 16 26 19 16 22 14 19 12 19 22 24 5 10 9 16 21 24 15 9 10 8 5 2 3 5 13 6 5 7 8 2 4 6 7 11 11 11 9 9 7 8 7
7 12 22 27 29 20 16 22 7 15 15 23 14 18 24 25 9 17 22 19 16 8 2 6 6 1 1 3 2 9 12 5 2 4 5 5 5 8 6 9 7 7 9 7 4
6 14 16 30 22 20 20 13 7 14 19 17 9 13 16 22 8 14 16 2 11 7 3 6 6 2 2 6 9 5 5 4 7 5 6 1 7 9 9 4 6 7 6 8 8
5 12 22 24 18 14 21 9 9 21 13 5 8 5 18 21 7 14 10 4 12 10 8 3 7 5 5 2 3 2 8 8 8 5 2 4 9 3 6 4 6 7 5 5 7
2 2 17 29 17 16 14 6 8 24 22 8 7 5 18 18 7 6 7 6 11 13 12 8 0 5 4 4 2 5 3 6 7 4 8 6 6 4 5 3 5 5 4 5 6
5 7 7 10 13 34 27 8 11 18 5 6 9 14 18 15 3 10 6 6 13 8 6 9 4 8 12 6 9 7 6 6 6 3 4 16 3 2 4 5 5 4 3 5 7
2 2 2 10 18 25 17 7 22 14 6 9 5 22 21 9 6 8 7 5 5 10 7 6 7 4 2 3 7 7 12 13 13 25 12 24 12 9 8 6 6 4 3 4 7
3 6 0 7 29 30 17 9 27 7 9 11 17 27 23 16 16 12 10 6 9 2 9 3 2 4 3 3 1 2 9 19 23 19 23 16 15 5 10 4 4 7 7 8 9
3 4 7 18 23 21 21 16 24 13 7 6 20 11 6 9 8 10 5 8 12 13 10 8 7 5 5 2 5 5 17 14 12 15 17 20 10 8 8 9 11 11 9 11 11
Wind_Direction
240 236 229 251 249 215 205 203 195 178 179 189 206 166 137 128 108 98 220 213 191 141 116 72 50 19 28 98 95 123 74 201 219 159 231 149 162 95 96 118 206 166 155 245 134
235 236 221 245 265 214 206 201 195 184 177 171 169 160 141 136 101 222 221 192 198 144 108 140 75 38 51 96 77 99 128 214 215 232 201 191 171 160 144 125 219 165 24 115 147
230 226 227 233 233 228 207 197 204 181 180 168 158 159 146 151 248 238 183 205 167 153 124 132 116 88 106 55 141 140 192 175 288 264 218 180 192 172 122 236 217 188 161 155 161
239 227 226 234 247 270 205 197 199 180 177 167 156 157 141 84 193 162 202 178 173 144 128 116 82 75 168 176 181 187 229 197 290 331 193 190 131 182 187 216 264 187 162 159 172
235 225 219 233 246 267 205 198 188 177 170 162 159 145 118 195 253 293 163 167 132 150 148 131 133 161 150 19 20 221 225 127 328 347 251 144 183 191 219 355 66 130 155 172 177
241 230 216 222 227 234 213 196 182 171 165 156 156 148 135 179 217 118 119 126 140 130 147 155 160 129 109 125 161 317 269 187 4 347 37 201 129 170 219 123 118 151 171 176 182
258 236 216 212 220 217 237 190 177 170 164 158 154 149 166 202 107 115 126 147 153 138 143 189 148 136 139 32 140 294 315 348 190 63 298 293 192 224 97 127 161 180 181 186 196
277 267 215 207 216 231 232 188 173 162 157 158 156 145 202 213 124 105 120 80 102 111 132 149 132 99 143 160 55 330 54 294 295 131 349 102 261 327 156 151 195 197 198 201 212
281 271 228 209 212 219 215 179 171 156 152 144 143 157 221 132 151 146 131 138 108 87 67 116 99 133 59 134 95 79 158 189 300 146 138 126 259 258 147 179 211 212 212 214 228
252 274 266 211 205 211 207 170 163 139 137 128 149 92 207 203 153 126 85 128 129 120 72 78 64 101 53 112 191 164 151 218 215 196 80 155 252 236 314 202 224 223 227 225 226
268 292 273 216 201 204 192 154 174 150 154 165 185 193 128 136 101 122 153 91 87 83 146 151 121 178 185 179 170 159 163 196 282 13 140 217 258 263 229 250 250 240 224 233 231
262 291 277 210 199 196 185 177 181 127 158 124 169 306 157 146 117 161 145 125 123 143 123 76 189 200 179 166 143 139 148 193 278 174 158 262 260 254 195 234 210 227 227 233 242
286 290 302 199 193 210 174 173 140 131 156 182 175 192 172 122 133 173 152 119 146 145 175 167 203 144 141 148 138 133 161 184 202 82 149 334 277 260 238 229 234 227 231 228 226
281 277 288 185 193 183 175 150 159 160 150 153 161 236 165 139 109 152 167 129 158 160 128 177 146 150 139 164 128 163 204 147 152 117 232 129 278 258 242 244 216 236 229 232 227
290 267 272 177 181 164 165 156 153 62 194 137 152 140 147 160 133 226 164 64 157 157 140 199 157 144 156 177 156 213 140 140 122 124 28 264 269 265 178 257 248 235 230 234 230
288 270 249 183 171 161 165 147 121 137 162 156 148 156 156 161 148 120 135 69 141 108 66 167 172 156 177 113 150 149 85 53 60 101 272 214 188 255 186 205 250 234 229 234 227
288 276 225 187 168 157 162 148 140 192 151 155 164 158 166 150 122 164 175 165 157 131 165 111 171 197 129 88 53 103 105 0 307 285 220 9 242 250 264 242 226 252 270 285 253
283 286 222 182 149 156 172 146 200 130 172 160 143 147 166 135 215 180 161 184 237 114 130 165 210 168 182 166 157 177 155 151 197 204 250 60 241 251 249 290 254 243 247 269 259
305 262 207 167 156 150 166 177 178 170 160 147 137 155 141 171 130 178 186 192 187 189 155 144 226 59 148 151 147 200 181 146 105 14 45 236 297 293 274 255 248 251 240 242 238
317 193 195 152 151 148 178 182 161 153 124 136 148 177 176 173 151 182 185 200 184 172 182 188 119 3 196 92 16 183 151 145 29 153 254 269 272 240 282 263 235 239 237 237 218
268 191 175 154 150 158 179 183 130 161 139 145 162 158 175 174 162 184 187 313 168 151 112 133 102 191 124 213 167 146 167 101 126 167 174 296 264 221 252 319 266 250 216 212 202
272 177 155 151 153 172 179 140 115 156 136 129 107 81 161 167 150 179 185 189 155 138 154 170 111 140 203 245 277 182 168 159 182 206 269 132 258 201 239 238 292 287 243 208 202
265 86 170 159 163 170 161 113 124 161 169 157 130 155 154 162 145 141 155 198 163 155 161 180 97 92 25 321 286 211 177 172 98 90 196 148 259 356 266 313 300 265 260 219 206
237 142 175 180 170 161 163 143 130 170 107 119 113 114 133 167 76 170 134 171 190 178 152 108 131 159 191 213 138 161 164 145 128 188 173 242 157 345 303 276 291 276 237 223 219
225 188 277 159 163 159 162 97 144 169 164 128 129 159 161 145 125 153 136 113 150 160 156 147 181 155 56 185 158 173 174 167 180 221 189 252 213 220 218 219 246 236 203 220 229
264 163 56 124 161 158 159 164 160 155 153 176 169 167 164 155 186 155 124 134 170 129 150 17 131 121 4 23 17 173 186 197 210 216 238 248 254 213 232 243 279 255 225 235 236
257 272 150 143 162 151 178 162 173 154 9 123 142 131 129 159 91 134 151 123 143 165 162 135 124 96 252 306 86 311 217 204 219 217 225 235 221 174 216 219 228 233 232 239 242